| time (UTC) | temp F | wind direction | speed MPH | gust MPH | rain 1hr in | rain 24hr in | rain mn in | humidity % | barometer mb |
| 20260902140752 | 67 | 71 | 1.0 | 3.0 | 0.00 | 0.00 | 0.00 | 84 | 1021.3 |
| 20260902140247 | 67 | 139 | 3.0 | 7.0 | 0.00 | 0.00 | 0.00 | 84 | 1021.1 |
| 20260902140203 | 65 | 132 | 0.0 | 9.0 | 0.00 | 0.17 | 0.00 | 90 | 1020.4 |
| 20260902135746 | 66 | 144 | 2.0 | 6.0 | 0.00 | 0.00 | 0.00 | 85 | 1021.0 |
| 20260902135703 | 65 | 88 | 0.0 | 7.0 | 0.00 | 0.18 | 0.00 | 91 | 1020.4 |
| 20260902135242 | 66 | 128 | 4.0 | 8.0 | 0.00 | 0.00 | 0.00 | 85 | 1020.9 |
| 20260902135203 | 65 | 134 | 3.0 | 8.0 | 0.00 | 0.19 | 0.00 | 91 | 1020.3 |
| 20260902134741 | 66 | 143 | 0.0 | 4.0 | 0.00 | 0.00 | 0.00 | 86 | 1021.0 |
| 20260902134702 | 65 | 106 | 2.0 | 8.0 | 0.00 | 0.20 | 0.00 | 91 | 1020.2 |
| 20260902134238 | 66 | 144 | 3.0 | 4.0 | 0.00 | 0.00 | 0.00 | 86 | 1020.9 |
| 20260902134202 | 64 | 115 | 1.0 | 3.0 | 0.00 | 0.21 | 0.00 | 92 | 1020.2 |
| 20260902133733 | 65 | 351 | 1.0 | 6.0 | 0.00 | 0.00 | 0.00 | 86 | 1020.8 |
| 20260902133702 | 64 | 90 | 1.0 | 10.0 | 0.00 | 0.22 | 0.00 | 92 | 1020.1 |
| 20260902133232 | 65 | 120 | 0.0 | 2.0 | 0.00 | 0.00 | 0.00 | 87 | 1020.8 |
| 20260902132727 | 65 | 41 | 2.0 | 3.0 | 0.00 | 0.00 | 0.00 | 88 | 1020.8 |
| 20260902132702 | 64 | 102 | 1.0 | 8.0 | 0.00 | 0.25 | 0.00 | 92 | 1020.1 |
| 20260902132223 | 64 | 136 | 0.0 | 1.0 | 0.00 | 0.00 | 0.00 | 89 | 1020.7 |
| 20260902132203 | 64 | 87 | 0.0 | 8.0 | 0.00 | 0.26 | 0.00 | 92 | 1020.0 |
| 20260902131718 | 64 | 65 | 1.0 | 6.0 | 0.00 | 0.00 | 0.00 | 88 | 1020.7 |
| 20260902131703 | 64 | 104 | 3.0 | 8.0 | 0.00 | 0.27 | 0.00 | 93 | 1020.1 |
| 20260902131214 | 64 | 89 | 3.0 | 4.0 | 0.00 | 0.00 | 0.00 | 88 | 1020.7 |
| 20260902131203 | 63 | 104 | 3.0 | 9.0 | 0.00 | 0.28 | 0.00 | 93 | 1020.2 |
| 20260902130714 | 64 | 98 | 2.0 | 6.0 | 0.00 | 0.00 | 0.00 | 87 | 1020.9 |
| 20260902130210 | 64 | 171 | 1.0 | 1.0 | 0.00 | 0.00 | 0.00 | 88 | 1021.2 |
| 20260902125705 | 64 | 204 | 1.0 | 1.0 | 0.00 | 0.00 | 0.00 | 88 | 1021.2 |
| 20260902125703 | 63 | 166 | 0.0 | 1.0 | 0.00 | 0.29 | 0.00 | 93 | 1020.4 |
| 20260902125203 | 63 | 109 | 3.0 | 8.0 | 0.00 | 0.29 | 0.00 | 93 | 1020.3 |
| 20260902125201 | 64 | 125 | 1.0 | 6.0 | 0.00 | 0.00 | 0.00 | 87 | 1020.9 |
| 20260902124703 | 63 | 90 | 1.0 | 8.0 | 0.00 | 0.29 | 0.00 | 94 | 1020.3 |
| 20260902124657 | 64 | 191 | 0.0 | 1.0 | 0.00 | 0.00 | 0.00 | 88 | 1021.0 |
| 20260902124157 | 64 | 42 | 2.0 | 4.0 | 0.00 | 0.00 | 0.00 | 88 | 1020.9 |
| 20260902123703 | 63 | 158 | 0.0 | 2.0 | 0.00 | 0.29 | 0.00 | 94 | 1020.3 |
| 20260902123653 | 64 | 156 | 1.0 | 4.0 | 0.00 | 0.00 | 0.00 | 88 | 1021.0 |
| 20260902123203 | 63 | 110 | 1.0 | 8.0 | 0.00 | 0.29 | 0.00 | 94 | 1020.2 |
| 20260902123149 | 64 | 147 | 2.0 | 4.0 | 0.00 | 0.00 | 0.00 | 89 | 1020.7 |
| 20260902122642 | 64 | 166 | 0.0 | 3.0 | 0.00 | 0.00 | 0.00 | 90 | 1020.9 |
| 20260902122202 | 62 | 101 | 0.0 | 0.0 | 0.00 | 0.29 | 0.00 | 94 | 1020.2 |
| 20260902122139 | 64 | 115 | 1.0 | 2.0 | 0.00 | 0.00 | 0.00 | 90 | 1020.9 |
| 20260902121702 | 62 | 123 | 0.0 | 0.0 | 0.00 | 0.29 | 0.00 | 94 | 1020.3 |
| 20260902121633 | 63 | 121 | 0.0 | 2.0 | 0.00 | 0.00 | 0.00 | 90 | 1021.1 |
| 20260902121203 | 62 | 74 | 0.0 | 0.0 | 0.00 | 0.29 | 0.00 | 94 | 1020.4 |
| 20260902121133 | 63 | 95 | 1.0 | 2.0 | 0.00 | 0.00 | 0.00 | 91 | 1021.1 |
| 20260902120623 | 63 | 135 | 2.0 | 2.0 | 0.00 | 0.00 | 0.00 | 91 | 1021.1 |
| 20260902120202 | 62 | 106 | 0.0 | 0.0 | 0.00 | 0.29 | 0.00 | 94 | 1020.4 |
| 20260902120119 | 62 | 124 | 0.0 | 1.0 | 0.00 | 0.00 | 0.00 | 92 | 1021.0 |
| 20260902115703 | 62 | 87 | 0.0 | 0.0 | 0.00 | 0.29 | 0.00 | 94 | 1020.5 |
| 20260902115614 | 62 | 98 | 0.0 | 3.0 | 0.00 | 0.00 | 0.00 | 92 | 1021.3 |
| 20260902115203 | 62 | 338 | 0.0 | 0.0 | 0.00 | 0.29 | 0.00 | 94 | 1020.6 |
| 20260902115110 | 62 | 125 | 0.0 | 0.0 | 0.00 | 0.00 | 0.00 | 93 | 1021.3 |
| 20260902114703 | 62 | 338 | 0.0 | 0.0 | 0.00 | 0.29 | 0.00 | 94 | 1020.7 |
| 20260902114606 | 62 | 131 | 0.0 | 0.0 | 0.00 | 0.00 | 0.00 | 93 | 1021.3 |
| 20260902114203 | 62 | 338 | 0.0 | 0.0 | 0.00 | 0.29 | 0.00 | 94 | 1020.7 |
| 20260902114105 | 62 | 137 | 0.0 | 0.0 | 0.00 | 0.00 | 0.00 | 93 | 1021.3 |
| 20260902113703 | 62 | 338 | 0.0 | 0.0 | 0.00 | 0.29 | 0.00 | 94 | 1020.7 |
| 20260902113601 | 62 | 139 | 0.0 | 0.0 | 0.00 | 0.00 | 0.00 | 93 | 1021.4 |
| 20260902113203 | 62 | 338 | 0.0 | 0.0 | 0.00 | 0.29 | 0.00 | 94 | 1020.7 |
| 20260902113056 | 62 | 138 | 0.0 | 0.0 | 0.00 | 0.00 | 0.00 | 93 | 1021.4 |
| 20260902112703 | 62 | 338 | 0.0 | 0.0 | 0.00 | 0.29 | 0.00 | 94 | 1020.7 |
| 20260902112551 | 62 | 139 | 0.0 | 0.0 | 0.00 | 0.00 | 0.00 | 93 | 1021.4 |
| 20260902112202 | 62 | 338 | 0.0 | 0.0 | 0.00 | 0.29 | 0.00 | 94 | 1020.6 |
| 20260902112048 | 62 | 135 | 0.0 | 0.0 | 0.00 | 0.00 | 0.00 | 93 | 1021.1 |
| 20260902111702 | 62 | 338 | 0.0 | 0.0 | 0.00 | 0.29 | 0.00 | 94 | 1020.4 |
| 20260902111544 | 62 | 179 | 0.0 | 0.0 | 0.00 | 0.00 | 0.00 | 93 | 1021.1 |
| 20260902111039 | 62 | 131 | 0.0 | 0.0 | 0.00 | 0.00 | 0.00 | 93 | 1021.0 |
| 20260902110703 | 62 | 338 | 0.0 | 0.0 | 0.00 | 0.29 | 0.00 | 94 | 1020.3 |
| 20260902110536 | 62 | 134 | 0.0 | 0.0 | 0.00 | 0.00 | 0.00 | 93 | 1020.9 |
| 20260902110202 | 62 | 338 | 0.0 | 0.0 | 0.00 | 0.29 | 0.00 | 94 | 1020.3 |
| 20260902110031 | 62 | 161 | 0.0 | 0.0 | 0.00 | 0.00 | 0.00 | 93 | 1020.9 |
| 20260902105703 | 62 | 338 | 0.0 | 0.0 | 0.00 | 0.29 | 0.00 | 94 | 1020.2 |
| 20260902105532 | 62 | 219 | 0.0 | 0.0 | 0.00 | 0.00 | 0.00 | 94 | 1020.6 |
| 20260902105203 | 62 | 338 | 0.0 | 0.0 | 0.00 | 0.29 | 0.00 | 94 | 1020.0 |
| 20260902105031 | 62 | 166 | 0.0 | 0.0 | 0.00 | 0.00 | 0.00 | 94 | 1020.7 |
| 20260902104702 | 62 | 338 | 0.0 | 0.0 | 0.00 | 0.29 | 0.00 | 94 | 1020.1 |
| 20260902104527 | 62 | 170 | 0.0 | 0.0 | 0.00 | 0.00 | 0.00 | 95 | 1020.5 |
| 20260902104203 | 62 | 338 | 0.0 | 0.0 | 0.00 | 0.29 | 0.00 | 94 | 1019.9 |
| 20260902104027 | 62 | 132 | 0.0 | 0.0 | 0.00 | 0.00 | 0.00 | 95 | 1020.6 |
| 20260902103703 | 62 | 338 | 0.0 | 0.0 | 0.00 | 0.29 | 0.00 | 94 | 1019.8 |
| 20260902103522 | 61 | 125 | 0.0 | 0.0 | 0.00 | 0.00 | 0.00 | 95 | 1020.2 |
| 20260902103203 | 62 | 338 | 0.0 | 0.0 | 0.00 | 0.29 | 0.00 | 94 | 1019.8 |
| 20260902103018 | 62 | 132 | 0.0 | 0.0 | 0.00 | 0.00 | 0.00 | 95 | 1020.2 |
| 20260902102703 | 62 | 338 | 0.0 | 0.0 | 0.00 | 0.29 | 0.00 | 94 | 1019.6 |
| 20260902102514 | 62 | 130 | 0.0 | 0.0 | 0.00 | 0.00 | 0.00 | 95 | 1020.2 |
| 20260902102203 | 62 | 338 | 0.0 | 0.0 | 0.00 | 0.29 | 0.00 | 94 | 1019.6 |
| 20260902102011 | 62 | 130 | 0.0 | 0.0 | 0.00 | 0.00 | 0.00 | 96 | 1020.3 |
| 20260902101703 | 62 | 338 | 0.0 | 0.0 | 0.00 | 0.29 | 0.00 | 94 | 1019.6 |
| 20260902101506 | 62 | 133 | 0.0 | 0.0 | 0.00 | 0.00 | 0.00 | 96 | 1020.3 |
| 20260902101203 | 62 | 338 | 0.0 | 0.0 | 0.00 | 0.29 | 0.00 | 94 | 1019.7 |
| 20260902101004 | 62 | 132 | 0.0 | 0.0 | 0.00 | 0.00 | 0.00 | 96 | 1020.3 |
| 20260902100702 | 62 | 338 | 0.0 | 0.0 | 0.00 | 0.29 | 0.00 | 94 | 1019.7 |
| 20260902100500 | 62 | 122 | 0.0 | 0.0 | 0.00 | 0.00 | 0.00 | 96 | 1020.2 |
| 20260902100203 | 62 | 338 | 0.0 | 0.0 | 0.00 | 0.29 | 0.00 | 94 | 1019.7 |
| 20260902095959 | 62 | 122 | 0.0 | 0.0 | 0.00 | 0.00 | 0.00 | 96 | 1020.4 |
| 20260902095703 | 62 | 338 | 0.0 | 0.0 | 0.00 | 0.29 | 0.00 | 94 | 1019.7 |
| 20260902095454 | 62 | 122 | 0.0 | 0.0 | 0.00 | 0.00 | 0.00 | 96 | 1020.4 |
| 20260902095203 | 62 | 338 | 0.0 | 0.0 | 0.00 | 0.29 | 0.00 | 94 | 1019.6 |
| 20260902094953 | 62 | 91 | 0.0 | 0.0 | 0.00 | 0.00 | 0.00 | 96 | 1020.1 |
| 20260902094703 | 62 | 338 | 0.0 | 0.0 | 0.00 | 0.29 | 0.00 | 94 | 1019.4 |
| 20260902094449 | 62 | 116 | 0.0 | 0.0 | 0.00 | 0.00 | 0.00 | 96 | 1020.0 |
| 20260902094203 | 62 | 338 | 0.0 | 0.0 | 0.00 | 0.29 | 0.00 | 94 | 1019.4 |
| 20260902093943 | 62 | 116 | 0.0 | 0.0 | 0.00 | 0.00 | 0.00 | 96 | 1020.0 |
| 20260902093703 | 62 | 338 | 0.0 | 0.0 | 0.00 | 0.29 | 0.00 | 94 | 1019.3 |
| 20260902093438 | 62 | 112 | 0.0 | 0.0 | 0.00 | 0.00 | 0.00 | 96 | 1019.9 |
| 20260902092937 | 62 | 140 | 0.0 | 0.0 | 0.00 | 0.00 | 0.00 | 96 | 1020.1 |
| 20260902092703 | 62 | 338 | 0.0 | 0.0 | 0.00 | 0.29 | 0.00 | 94 | 1019.4 |
| 20260902092433 | 62 | 139 | 0.0 | 0.0 | 0.00 | 0.00 | 0.00 | 96 | 1020.0 |
| 20260902092203 | 62 | 338 | 0.0 | 0.0 | 0.00 | 0.29 | 0.00 | 94 | 1019.4 |
| 20260902091933 | 62 | 133 | 0.0 | 0.0 | 0.00 | 0.00 | 0.00 | 96 | 1019.9 |
| 20260902091702 | 62 | 338 | 0.0 | 0.0 | 0.00 | 0.29 | 0.00 | 94 | 1019.2 |
| 20260902091429 | 62 | 133 | 0.0 | 0.0 | 0.00 | 0.00 | 0.00 | 96 | 1019.9 |
| 20260902091203 | 62 | 338 | 0.0 | 0.0 | 0.00 | 0.29 | 0.00 | 94 | 1019.3 |
| 20260902090925 | 62 | 133 | 0.0 | 0.0 | 0.00 | 0.00 | 0.00 | 96 | 1020.0 |
| 20260902090703 | 62 | 338 | 0.0 | 0.0 | 0.00 | 0.29 | 0.00 | 94 | 1019.3 |
| 20260902090425 | 62 | 133 | 0.0 | 0.0 | 0.00 | 0.00 | 0.00 | 96 | 1020.0 |
| 20260902090203 | 62 | 338 | 0.0 | 0.0 | 0.00 | 0.29 | 0.00 | 94 | 1019.2 |
| 20260902085924 | 62 | 133 | 0.0 | 0.0 | 0.00 | 0.00 | 0.00 | 96 | 1019.9 |
| 20260902085419 | 62 | 127 | 0.0 | 0.0 | 0.00 | 0.00 | 0.00 | 96 | 1019.9 |
| 20260902084914 | 62 | 127 | 0.0 | 0.0 | 0.00 | 0.00 | 0.00 | 96 | 1020.0 |
| 20260902084702 | 62 | 338 | 0.0 | 0.0 | 0.00 | 0.29 | 0.00 | 94 | 1019.3 |
| 20260902084411 | 62 | 147 | 0.0 | 0.0 | 0.00 | 0.00 | 0.00 | 96 | 1020.0 |
| 20260902084203 | 62 | 338 | 0.0 | 0.0 | 0.00 | 0.29 | 0.00 | 94 | 1019.2 |
| 20260902083907 | 62 | 155 | 0.0 | 0.0 | 0.00 | 0.00 | 0.00 | 96 | 1019.7 |
| 20260902083703 | 62 | 338 | 0.0 | 0.0 | 0.00 | 0.29 | 0.00 | 94 | 1019.0 |
| 20260902083406 | 62 | 107 | 0.0 | 0.0 | 0.00 | 0.00 | 0.00 | 96 | 1019.5 |
| 20260902083203 | 62 | 338 | 0.0 | 0.0 | 0.00 | 0.29 | 0.00 | 94 | 1019.0 |
| 20260902082901 | 62 | 120 | 0.0 | 0.0 | 0.00 | 0.00 | 0.00 | 96 | 1019.6 |
| 20260902082703 | 62 | 338 | 0.0 | 0.0 | 0.00 | 0.29 | 0.00 | 94 | 1019.0 |
| 20260902082357 | 62 | 77 | 0.0 | 0.0 | 0.00 | 0.00 | 0.00 | 96 | 1019.7 |
| 20260902082203 | 62 | 338 | 0.0 | 0.0 | 0.00 | 0.29 | 0.00 | 94 | 1019.2 |
| 20260902081854 | 62 | 119 | 0.0 | 0.0 | 0.00 | 0.00 | 0.00 | 96 | 1019.9 |
| 20260902081702 | 62 | 338 | 0.0 | 0.0 | 0.00 | 0.29 | 0.00 | 94 | 1019.3 |
| 20260902081349 | 62 | 60 | 0.0 | 0.0 | 0.00 | 0.00 | 0.00 | 96 | 1019.8 |
| 20260902080844 | 62 | 126 | 0.0 | 0.0 | 0.00 | 0.00 | 0.00 | 97 | 1020.0 |
| 20260902080703 | 62 | 337 | 0.0 | 0.0 | 0.00 | 0.29 | 0.00 | 94 | 1019.3 |
| 20260902080341 | 62 | 131 | 0.0 | 0.0 | 0.00 | 0.00 | 0.00 | 97 | 1019.8 |
| 20260902080203 | 62 | 337 | 0.0 | 0.0 | 0.00 | 0.29 | 0.00 | 94 | 1019.3 |
| 20260902075840 | 62 | 122 | 0.0 | 0.0 | 0.00 | 0.00 | 0.00 | 96 | 1019.9 |
| 20260902075336 | 62 | 122 | 0.0 | 0.0 | 0.00 | 0.00 | 0.00 | 96 | 1019.8 |
| 20260902075202 | 62 | 337 | 0.0 | 0.0 | 0.00 | 0.29 | 0.00 | 94 | 1019.3 |
| 20260902074831 | 62 | 122 | 0.0 | 0.0 | 0.00 | 0.00 | 0.00 | 96 | 1020.0 |
| 20260902074702 | 62 | 337 | 0.0 | 0.0 | 0.00 | 0.29 | 0.00 | 94 | 1019.2 |
| 20260902074327 | 62 | 122 | 0.0 | 0.0 | 0.00 | 0.00 | 0.00 | 96 | 1019.9 |
| 20260902074203 | 62 | 337 | 0.0 | 0.0 | 0.00 | 0.29 | 0.00 | 94 | 1019.4 |
| 20260902073827 | 62 | 122 | 0.0 | 0.0 | 0.00 | 0.00 | 0.00 | 96 | 1020.2 |
| 20260902073703 | 62 | 337 | 0.0 | 0.0 | 0.00 | 0.29 | 0.00 | 94 | 1019.4 |
| 20260902073324 | 62 | 122 | 0.0 | 0.0 | 0.00 | 0.00 | 0.00 | 96 | 1020.2 |
| 20260902073203 | 62 | 337 | 0.0 | 0.0 | 0.00 | 0.29 | 0.00 | 94 | 1019.5 |
| 20260902072820 | 62 | 121 | 0.0 | 0.0 | 0.00 | 0.00 | 0.00 | 96 | 1020.2 |
| 20260902072703 | 62 | 337 | 0.0 | 0.0 | 0.00 | 0.29 | 0.00 | 94 | 1019.6 |
| 20260902072315 | 62 | 120 | 0.0 | 0.0 | 0.00 | 0.00 | 0.00 | 96 | 1020.0 |
| 20260902072203 | 62 | 337 | 0.0 | 0.0 | 0.00 | 0.29 | 0.00 | 94 | 1019.4 |
| 20260902071811 | 62 | 137 | 0.0 | 0.0 | 0.00 | 0.00 | 0.00 | 96 | 1020.0 |
| 20260902071703 | 62 | 337 | 0.0 | 0.0 | 0.00 | 0.29 | 0.00 | 94 | 1019.4 |
| 20260902071306 | 62 | 99 | 0.0 | 0.0 | 0.00 | 0.00 | 0.00 | 96 | 1020.1 |
| 20260902071202 | 62 | 337 | 0.0 | 0.0 | 0.00 | 0.29 | 0.00 | 94 | 1019.5 |
| 20260902070803 | 62 | 110 | 0.0 | 0.0 | 0.00 | 0.00 | 0.00 | 96 | 1020.2 |
| 20260902070703 | 62 | 337 | 0.0 | 0.0 | 0.00 | 0.29 | 0.00 | 94 | 1019.4 |
| 20260902070302 | 62 | 109 | 0.0 | 0.0 | 0.00 | 0.00 | 0.00 | 96 | 1020.1 |
| 20260902070203 | 62 | 337 | 0.0 | 0.0 | 0.00 | 0.29 | 0.00 | 94 | 1019.3 |
| 20260902065801 | 62 | 126 | 0.0 | 0.0 | 0.00 | 0.00 | 0.00 | 97 | 1019.8 |
| 20260902065703 | 62 | 338 | 0.0 | 0.0 | 0.00 | 0.29 | 0.00 | 94 | 1019.2 |
| 20260902065256 | 62 | 106 | 0.0 | 0.0 | 0.00 | 0.00 | 0.00 | 96 | 1020.0 |
| 20260902065203 | 62 | 144 | 0.0 | 0.0 | 0.00 | 0.29 | 0.00 | 94 | 1019.3 |
| 20260902064752 | 62 | 103 | 0.0 | 0.0 | 0.00 | 0.00 | 0.00 | 96 | 1020.1 |
| 20260902064703 | 62 | 144 | 0.0 | 0.0 | 0.00 | 0.29 | 0.00 | 94 | 1019.2 |
| 20260902064248 | 62 | 140 | 0.0 | 0.0 | 0.00 | 0.00 | 0.00 | 97 | 1019.8 |
| 20260902064203 | 62 | 144 | 0.0 | 0.0 | 0.00 | 0.29 | 0.00 | 94 | 1019.2 |
| 20260902063743 | 62 | 139 | 0.0 | 0.0 | 0.00 | 0.00 | 0.00 | 96 | 1020.0 |
| 20260902063702 | 62 | 144 | 0.0 | 0.0 | 0.00 | 0.29 | 0.00 | 94 | 1019.2 |
| 20260902063238 | 62 | 150 | 0.0 | 0.0 | 0.00 | 0.00 | 0.00 | 96 | 1019.8 |
| 20260902062737 | 62 | 133 | 0.0 | 0.0 | 0.00 | 0.00 | 0.00 | 97 | 1019.9 |
| 20260902062703 | 62 | 144 | 0.0 | 0.0 | 0.00 | 0.29 | 0.00 | 93 | 1019.2 |
| 20260902062232 | 62 | 134 | 0.0 | 0.0 | 0.00 | 0.00 | 0.00 | 97 | 1019.8 |
| 20260902062202 | 62 | 144 | 0.0 | 0.0 | 0.00 | 0.29 | 0.00 | 94 | 1019.1 |
| 20260902061731 | 62 | 134 | 0.0 | 0.0 | 0.00 | 0.00 | 0.00 | 97 | 1019.6 |
| 20260902061703 | 62 | 144 | 0.0 | 0.0 | 0.00 | 0.29 | 0.00 | 93 | 1019.1 |
| 20260902061227 | 62 | 145 | 0.0 | 0.0 | 0.00 | 0.00 | 0.00 | 96 | 1019.7 |
| 20260902061203 | 62 | 144 | 0.0 | 0.0 | 0.00 | 0.29 | 0.00 | 93 | 1019.1 |
| 20260902060724 | 62 | 131 | 0.0 | 0.0 | 0.00 | 0.00 | 0.00 | 96 | 1019.7 |
| 20260902060703 | 62 | 144 | 0.0 | 0.0 | 0.00 | 0.29 | 0.00 | 93 | 1019.0 |
| 20260902060219 | 62 | 115 | 0.0 | 0.0 | 0.00 | 0.00 | 0.00 | 96 | 1019.7 |
| 20260902060203 | 62 | 144 | 0.0 | 0.0 | 0.00 | 0.29 | 0.00 | 93 | 1019.0 |
| 20260902055715 | 62 | 98 | 0.0 | 0.0 | 0.00 | 0.00 | 0.00 | 96 | 1019.8 |
| 20260902055210 | 62 | 128 | 0.0 | 0.0 | 0.00 | 0.00 | 0.00 | 97 | 1019.8 |
| 20260902055203 | 62 | 144 | 0.0 | 0.0 | 0.00 | 0.29 | 0.00 | 93 | 1019.1 |
| 20260902054705 | 62 | 130 | 0.0 | 0.0 | 0.00 | 0.00 | 0.00 | 97 | 1019.8 |
| 20260902054203 | 62 | 144 | 0.0 | 0.0 | 0.00 | 0.29 | 0.00 | 93 | 1019.0 |
| 20260902054201 | 62 | 135 | 0.0 | 0.0 | 0.00 | 0.00 | 0.00 | 97 | 1019.7 |
| 20260902053656 | 62 | 110 | 0.0 | 0.0 | 0.00 | 0.00 | 0.00 | 96 | 1019.6 |
| 20260902053203 | 63 | 144 | 0.0 | 0.0 | 0.00 | 0.29 | 0.00 | 93 | 1018.9 |
| 20260902053150 | 62 | 116 | 0.0 | 0.0 | 0.00 | 0.00 | 0.00 | 96 | 1019.6 |
| 20260902052649 | 62 | 144 | 0.0 | 0.0 | 0.00 | 0.00 | 0.00 | 96 | 1019.6 |
| 20260902052203 | 63 | 144 | 0.0 | 0.0 | 0.00 | 0.29 | 0.00 | 93 | 1018.9 |
| 20260902052145 | 62 | 126 | 0.0 | 0.0 | 0.00 | 0.00 | 0.00 | 96 | 1019.7 |
| 20260902051703 | 63 | 144 | 0.0 | 0.0 | 0.00 | 0.29 | 0.00 | 93 | 1018.9 |
| 20260902051645 | 62 | 131 | 0.0 | 0.0 | 0.00 | 0.00 | 0.00 | 96 | 1019.4 |
| 20260902051203 | 63 | 144 | 0.0 | 0.0 | 0.00 | 0.29 | 0.00 | 93 | 1018.8 |
| 20260902051144 | 62 | 118 | 0.0 | 0.0 | 0.00 | 0.00 | 0.00 | 96 | 1019.5 |
| 20260902050703 | 63 | 144 | 0.0 | 0.0 | 0.00 | 0.29 | 0.00 | 93 | 1018.8 |
| 20260902050639 | 62 | 111 | 0.0 | 0.0 | 0.00 | 0.00 | 0.00 | 96 | 1019.5 |
| 20260902050203 | 63 | 144 | 0.0 | 0.0 | 0.00 | 0.29 | 0.00 | 93 | 1018.7 |
| 20260902050135 | 62 | 129 | 0.0 | 0.0 | 0.00 | 0.00 | 0.00 | 96 | 1019.4 |
| 20260902045630 | 62 | 129 | 0.0 | 0.0 | 0.00 | 0.00 | 0.00 | 96 | 1019.4 |
| 20260902045126 | 62 | 129 | 0.0 | 0.0 | 0.00 | 0.00 | 0.00 | 96 | 1019.2 |
| 20260902044703 | 63 | 144 | 0.0 | 0.0 | 0.00 | 0.29 | 0.00 | 93 | 1018.4 |
| 20260902044625 | 62 | 129 | 0.0 | 0.0 | 0.00 | 0.00 | 0.00 | 96 | 1019.0 |
| 20260902044203 | 63 | 144 | 0.0 | 0.0 | 0.00 | 0.29 | 0.00 | 93 | 1018.4 |
| 20260902044122 | 62 | 134 | 0.0 | 0.0 | 0.00 | 0.00 | 0.00 | 96 | 1018.9 |
| 20260902043703 | 63 | 144 | 0.0 | 0.0 | 0.00 | 0.29 | 0.00 | 93 | 1018.3 |
| 20260902043617 | 62 | 134 | 0.0 | 0.0 | 0.00 | 0.00 | 0.00 | 96 | 1018.8 |
| 20260902043203 | 63 | 144 | 0.0 | 0.0 | 0.00 | 0.29 | 0.00 | 93 | 1018.2 |
| 20260902043112 | 62 | 139 | 0.0 | 0.0 | 0.00 | 0.00 | 0.00 | 96 | 1018.8 |
| 20260902042703 | 63 | 144 | 0.0 | 0.0 | 0.00 | 0.29 | 0.00 | 93 | 1018.2 |
| 20260902042611 | 62 | 140 | 0.0 | 0.0 | 0.00 | 0.00 | 0.00 | 96 | 1018.9 |
| 20260902042202 | 63 | 144 | 0.0 | 0.0 | 0.00 | 0.29 | 0.00 | 93 | 1018.1 |
| 20260902042107 | 62 | 140 | 0.0 | 0.0 | 0.00 | 0.00 | 0.00 | 96 | 1018.7 |
| 20260902041703 | 63 | 144 | 0.0 | 0.0 | 0.00 | 0.29 | 0.00 | 93 | 1018.0 |
| 20260902041606 | 62 | 140 | 0.0 | 0.0 | 0.00 | 0.00 | 0.00 | 96 | 1018.7 |
| 20260902041203 | 63 | 144 | 0.0 | 0.0 | 0.00 | 0.29 | 0.00 | 93 | 1017.9 |
| 20260902041102 | 62 | 146 | 0.0 | 0.0 | 0.00 | 0.00 | 0.00 | 96 | 1018.3 |
| 20260902040703 | 63 | 144 | 0.0 | 0.0 | 0.00 | 0.29 | 0.00 | 93 | 1017.8 |
| 20260902040601 | 62 | 136 | 0.0 | 0.0 | 0.00 | 0.00 | 0.00 | 96 | 1018.5 |
| 20260902040203 | 63 | 144 | 0.0 | 0.0 | 0.00 | 0.29 | 0.00 | 93 | 1017.7 |
| 20260902040056 | 62 | 136 | 0.0 | 0.0 | 0.00 | 0.37 | 0.37 | 96 | 1018.3 |
| 20260902035554 | 62 | 142 | 0.0 | 0.0 | 0.00 | 0.37 | 0.37 | 96 | 1018.4 |
| 20260902035050 | 62 | 117 | 0.0 | 0.0 | 0.00 | 0.37 | 0.37 | 96 | 1018.3 |
| 20260902034703 | 63 | 144 | 0.0 | 0.0 | 0.00 | 0.29 | 0.29 | 93 | 1017.6 |
| 20260902034549 | 62 | 129 | 0.0 | 0.0 | 0.00 | 0.37 | 0.37 | 96 | 1018.2 |
| 20260902034203 | 63 | 144 | 0.0 | 0.0 | 0.00 | 0.29 | 0.29 | 93 | 1017.6 |
| 20260902034049 | 62 | 126 | 0.0 | 0.0 | 0.00 | 0.37 | 0.37 | 96 | 1018.2 |
| 20260902033703 | 63 | 144 | 0.0 | 0.0 | 0.00 | 0.29 | 0.29 | 93 | 1017.6 |
| 20260902033548 | 62 | 125 | 0.0 | 0.0 | 0.00 | 0.37 | 0.37 | 96 | 1018.3 |
| 20260902033043 | 62 | 116 | 0.0 | 0.0 | 0.00 | 0.37 | 0.37 | 96 | 1018.3 |
| 20260902032703 | 63 | 144 | 0.0 | 0.0 | 0.00 | 0.29 | 0.29 | 93 | 1017.5 |
| 20260902032542 | 62 | 108 | 0.0 | 0.0 | 0.00 | 0.37 | 0.37 | 96 | 1018.1 |
| 20260902032203 | 63 | 144 | 0.0 | 0.0 | 0.00 | 0.29 | 0.29 | 92 | 1017.4 |
| 20260902032037 | 62 | 127 | 0.0 | 0.0 | 0.00 | 0.37 | 0.37 | 96 | 1018.1 |
| 20260902031703 | 63 | 144 | 0.0 | 0.0 | 0.00 | 0.29 | 0.29 | 92 | 1017.4 |
| 20260902031532 | 62 | 125 | 0.0 | 0.0 | 0.00 | 0.37 | 0.37 | 96 | 1018.0 |
| 20260902031028 | 62 | 129 | 0.0 | 0.0 | 0.00 | 0.37 | 0.37 | 96 | 1018.4 |
| 20260902030703 | 63 | 144 | 0.0 | 0.0 | 0.00 | 0.29 | 0.29 | 92 | 1017.6 |
| 20260902030522 | 62 | 133 | 0.0 | 0.0 | 0.00 | 0.37 | 0.37 | 96 | 1018.4 |
| 20260902030203 | 63 | 144 | 0.0 | 0.0 | 0.00 | 0.29 | 0.29 | 92 | 1017.7 |
| 20260902030022 | 62 | 119 | 0.0 | 0.0 | 0.00 | 0.37 | 0.37 | 96 | 1018.4 |
| 20260902025703 | 63 | 144 | 0.0 | 0.0 | 0.00 | 0.29 | 0.29 | 92 | 1017.6 |
| 20260902025517 | 62 | 124 | 0.0 | 0.0 | 0.00 | 0.37 | 0.37 | 96 | 1018.3 |
| 20260902025012 | 62 | 123 | 0.0 | 0.0 | 0.00 | 0.37 | 0.37 | 96 | 1018.3 |
| 20260902024703 | 63 | 144 | 0.0 | 0.0 | 0.00 | 0.29 | 0.29 | 92 | 1017.6 |
| 20260902024508 | 62 | 98 | 0.0 | 0.0 | 0.00 | 0.37 | 0.37 | 96 | 1018.3 |
| 20260902024203 | 63 | 144 | 0.0 | 0.0 | 0.00 | 0.29 | 0.29 | 92 | 1017.7 |
| 20260902024008 | 62 | 104 | 0.0 | 0.0 | 0.00 | 0.37 | 0.37 | 96 | 1018.5 |
| 20260902023703 | 63 | 144 | 0.0 | 0.0 | 0.00 | 0.29 | 0.29 | 92 | 1017.7 |
| 20260902023504 | 62 | 131 | 0.0 | 0.0 | 0.00 | 0.37 | 0.37 | 96 | 1018.4 |
| 20260902023203 | 63 | 144 | 0.0 | 0.0 | 0.00 | 0.29 | 0.29 | 92 | 1017.6 |
| 20260902023003 | 62 | 131 | 0.0 | 0.0 | 0.00 | 0.37 | 0.37 | 96 | 1018.2 |
| 20260902022702 | 63 | 144 | 0.0 | 0.0 | 0.00 | 0.29 | 0.29 | 92 | 1017.7 |
| 20260902022458 | 62 | 131 | 0.0 | 0.0 | 0.00 | 0.37 | 0.37 | 95 | 1018.4 |
| 20260902022203 | 63 | 144 | 0.0 | 0.0 | 0.00 | 0.29 | 0.29 | 92 | 1017.6 |
| 20260902021953 | 62 | 132 | 0.0 | 0.0 | 0.00 | 0.37 | 0.37 | 95 | 1018.4 |
| 20260902021703 | 63 | 144 | 0.0 | 0.0 | 0.00 | 0.29 | 0.29 | 92 | 1017.6 |
| 20260902021448 | 62 | 134 | 0.0 | 0.0 | 0.00 | 0.37 | 0.37 | 95 | 1018.5 |
| 20260902021203 | 63 | 144 | 0.0 | 0.0 | 0.00 | 0.29 | 0.29 | 92 | 1017.8 |
| 20260902020944 | 62 | 133 | 0.0 | 0.0 | 0.00 | 0.37 | 0.37 | 95 | 1018.4 |
| 20260902020703 | 63 | 144 | 0.0 | 0.0 | 0.00 | 0.29 | 0.29 | 92 | 1017.8 |
| 20260902020440 | 62 | 138 | 0.0 | 0.0 | 0.00 | 0.37 | 0.37 | 95 | 1018.5 |
| 20260902020202 | 63 | 144 | 0.0 | 0.0 | 0.00 | 0.29 | 0.29 | 92 | 1017.8 |
| 20260902015935 | 62 | 122 | 0.0 | 0.0 | 0.00 | 0.37 | 0.37 | 95 | 1018.3 |
| 20260902015703 | 63 | 144 | 0.0 | 0.0 | 0.00 | 0.29 | 0.29 | 92 | 1017.7 |
| 20260902015431 | 62 | 123 | 0.0 | 0.0 | 0.00 | 0.37 | 0.37 | 95 | 1018.5 |
| 20260902015203 | 63 | 144 | 0.0 | 0.0 | 0.00 | 0.29 | 0.29 | 92 | 1017.7 |
| 20260902014932 | 62 | 137 | 0.0 | 0.0 | 0.00 | 0.37 | 0.37 | 95 | 1018.4 |
| 20260902014703 | 63 | 144 | 0.0 | 0.0 | 0.00 | 0.29 | 0.29 | 92 | 1017.8 |
| 20260902014429 | 62 | 103 | 0.0 | 0.0 | 0.00 | 0.37 | 0.37 | 95 | 1018.5 |
| 20260902014203 | 63 | 144 | 0.0 | 0.0 | 0.00 | 0.29 | 0.29 | 92 | 1017.7 |
| 20260902013927 | 62 | 127 | 0.0 | 0.0 | 0.00 | 0.37 | 0.37 | 95 | 1018.3 |
| 20260902013423 | 62 | 126 | 0.0 | 0.0 | 0.00 | 0.37 | 0.37 | 95 | 1018.2 |
| 20260902013203 | 63 | 144 | 0.0 | 0.0 | 0.00 | 0.29 | 0.29 | 91 | 1017.6 |
| 20260902012918 | 62 | 127 | 0.0 | 0.0 | 0.00 | 0.37 | 0.37 | 95 | 1018.2 |
| 20260902012703 | 63 | 144 | 0.0 | 0.0 | 0.00 | 0.29 | 0.29 | 91 | 1017.6 |
| 20260902012414 | 62 | 127 | 0.0 | 0.0 | 0.00 | 0.37 | 0.37 | 95 | 1018.4 |
| 20260902012203 | 63 | 144 | 0.0 | 0.0 | 0.00 | 0.29 | 0.29 | 91 | 1017.7 |
| 20260902011909 | 62 | 106 | 0.0 | 0.0 | 0.00 | 0.37 | 0.37 | 95 | 1018.4 |
| 20260902011703 | 63 | 144 | 0.0 | 0.0 | 0.00 | 0.29 | 0.29 | 91 | 1017.7 |
| 20260902011405 | 62 | 108 | 0.0 | 0.0 | 0.00 | 0.37 | 0.37 | 95 | 1018.4 |
| 20260902011203 | 63 | 144 | 0.0 | 0.0 | 0.00 | 0.29 | 0.29 | 91 | 1017.6 |
| 20260902010904 | 62 | 125 | 0.0 | 0.0 | 0.00 | 0.37 | 0.37 | 95 | 1018.2 |
| 20260902010703 | 63 | 144 | 0.0 | 0.0 | 0.00 | 0.29 | 0.29 | 91 | 1017.5 |
| 20260902010359 | 62 | 125 | 0.0 | 0.0 | 0.00 | 0.37 | 0.37 | 95 | 1018.3 |
| 20260902010202 | 63 | 144 | 0.0 | 0.0 | 0.00 | 0.29 | 0.29 | 91 | 1017.5 |
| 20260902005858 | 62 | 125 | 0.0 | 0.0 | 0.00 | 0.37 | 0.37 | 94 | 1018.2 |
| 20260902005703 | 63 | 144 | 0.0 | 0.0 | 0.00 | 0.29 | 0.29 | 91 | 1017.6 |
| 20260902005353 | 62 | 125 | 0.0 | 0.0 | 0.00 | 0.37 | 0.37 | 94 | 1018.3 |
| 20260902005203 | 63 | 144 | 0.0 | 0.0 | 0.00 | 0.29 | 0.29 | 91 | 1017.6 |
| 20260902004849 | 63 | 129 | 0.0 | 1.0 | 0.00 | 0.37 | 0.37 | 94 | 1018.3 |
| 20260902004703 | 63 | 144 | 0.0 | 0.0 | 0.00 | 0.29 | 0.29 | 91 | 1017.6 |
| 20260902004348 | 62 | 139 | 0.0 | 0.0 | 0.00 | 0.37 | 0.37 | 94 | 1018.3 |
| 20260902004203 | 63 | 144 | 0.0 | 0.0 | 0.00 | 0.29 | 0.29 | 91 | 1017.5 |
| 20260902003843 | 62 | 129 | 0.0 | 0.0 | 0.00 | 0.37 | 0.37 | 94 | 1018.2 |
| 20260902003703 | 63 | 144 | 0.0 | 0.0 | 0.00 | 0.29 | 0.29 | 90 | 1017.4 |
| 20260902003338 | 62 | 124 | 0.0 | 0.0 | 0.00 | 0.37 | 0.37 | 94 | 1017.9 |
| 20260902003203 | 63 | 144 | 0.0 | 0.0 | 0.00 | 0.29 | 0.29 | 90 | 1017.3 |
| 20260902002834 | 62 | 128 | 0.0 | 0.0 | 0.00 | 0.37 | 0.37 | 93 | 1018.2 |
| 20260902002703 | 63 | 144 | 0.0 | 0.0 | 0.00 | 0.29 | 0.29 | 90 | 1017.3 |
| 20260902002328 | 62 | 131 | 0.0 | 0.0 | 0.00 | 0.37 | 0.37 | 93 | 1018.0 |
| 20260902002203 | 63 | 144 | 0.0 | 0.0 | 0.00 | 0.29 | 0.29 | 90 | 1017.2 |
| 20260902001823 | 62 | 133 | 0.0 | 0.0 | 0.00 | 0.37 | 0.37 | 93 | 1018.0 |
| 20260902001703 | 63 | 144 | 0.0 | 0.0 | 0.00 | 0.29 | 0.29 | 90 | 1017.2 |
| 20260902001318 | 62 | 132 | 0.0 | 0.0 | 0.00 | 0.37 | 0.37 | 93 | 1017.9 |
| 20260902001203 | 63 | 144 | 0.0 | 0.0 | 0.00 | 0.29 | 0.29 | 90 | 1017.1 |
| 20260902000813 | 62 | 127 | 0.0 | 0.0 | 0.00 | 0.37 | 0.37 | 93 | 1017.8 |
| 20260902000703 | 63 | 144 | 0.0 | 0.0 | 0.00 | 0.29 | 0.29 | 90 | 1017.0 |
| 20260902000313 | 62 | 127 | 0.0 | 0.0 | 0.00 | 0.37 | 0.37 | 93 | 1017.7 |
| 20260902000204 | 63 | 144 | 0.0 | 0.0 | 0.00 | 0.29 | 0.29 | 90 | 1017.0 |
| 20260901235808 | 62 | 127 | 0.0 | 0.0 | 0.00 | 0.37 | 0.37 | 92 | 1017.7 |
| 20260901235703 | 63 | 144 | 0.0 | 0.0 | 0.00 | 0.29 | 0.29 | 90 | 1017.0 |
| 20260901235307 | 62 | 117 | 0.0 | 0.0 | 0.00 | 0.37 | 0.37 | 92 | 1017.6 |
| 20260901234802 | 62 | 134 | 0.0 | 0.0 | 0.00 | 0.37 | 0.37 | 92 | 1017.6 |
| 20260901234257 | 62 | 113 | 0.0 | 0.0 | 0.00 | 0.37 | 0.37 | 92 | 1017.5 |
| 20260901234203 | 63 | 144 | 0.0 | 0.0 | 0.01 | 0.29 | 0.29 | 90 | 1016.7 |
| 20260901233757 | 62 | 134 | 0.0 | 1.0 | 0.00 | 0.37 | 0.37 | 92 | 1017.6 |
| 20260901233703 | 63 | 144 | 0.0 | 0.0 | 0.01 | 0.29 | 0.29 | 89 | 1016.7 |
| 20260901233253 | 62 | 106 | 0.0 | 0.0 | 0.00 | 0.37 | 0.37 | 92 | 1017.7 |
| 20260901232748 | 62 | 121 | 0.0 | 1.0 | 0.00 | 0.37 | 0.37 | 92 | 1017.6 |
| 20260901232703 | 64 | 144 | 0.0 | 0.0 | 0.01 | 0.29 | 0.29 | 89 | 1017.0 |
| 20260901232238 | 63 | 128 | 0.0 | 2.0 | 0.00 | 0.37 | 0.37 | 92 | 1017.9 |
| 20260901232203 | 64 | 142 | 0.0 | 0.0 | 0.01 | 0.29 | 0.29 | 89 | 1017.2 |
| 20260901231734 | 63 | 106 | 0.0 | 0.0 | 0.00 | 0.37 | 0.37 | 91 | 1017.8 |
| 20260901231703 | 64 | 142 | 0.0 | 0.0 | 0.01 | 0.29 | 0.29 | 89 | 1017.2 |
| 20260901231230 | 63 | 106 | 0.0 | 0.0 | 0.00 | 0.37 | 0.37 | 91 | 1017.9 |
| 20260901231203 | 64 | 142 | 0.0 | 0.0 | 0.01 | 0.29 | 0.29 | 89 | 1017.2 |
| 20260901230726 | 63 | 125 | 0.0 | 0.0 | 0.00 | 0.37 | 0.37 | 91 | 1017.9 |
| 20260901230703 | 64 | 142 | 0.0 | 0.0 | 0.01 | 0.29 | 0.29 | 89 | 1017.1 |
| 20260901230225 | 63 | 135 | 0.0 | 1.0 | 0.00 | 0.37 | 0.37 | 90 | 1017.8 |
| 20260901230203 | 64 | 142 | 0.0 | 0.0 | 0.01 | 0.29 | 0.29 | 89 | 1017.1 |
| 20260901225720 | 63 | 144 | 0.0 | 2.0 | 0.00 | 0.37 | 0.37 | 91 | 1017.8 |
| 20260901225703 | 64 | 131 | 0.0 | 5.0 | 0.01 | 0.29 | 0.29 | 88 | 1017.1 |
| 20260901225214 | 63 | 135 | 4.0 | 4.0 | 0.00 | 0.37 | 0.37 | 92 | 1017.9 |
| 20260901225203 | 65 | 165 | 0.0 | 0.0 | 0.01 | 0.29 | 0.29 | 89 | 1017.0 |
| 20260901224711 | 64 | 133 | 1.0 | 2.0 | 0.07 | 0.37 | 0.37 | 92 | 1017.9 |
| 20260901224207 | 64 | 153 | 0.0 | 1.0 | 0.07 | 0.37 | 0.37 | 91 | 1017.7 |
| 20260901224202 | 65 | 151 | 0.0 | 0.0 | 0.00 | 0.28 | 0.28 | 89 | 1017.0 |
| 20260901223703 | 65 | 139 | 0.0 | 0.0 | 0.00 | 0.28 | 0.28 | 88 | 1017.0 |
| 20260901223204 | 66 | 163 | 0.0 | 1.0 | 0.00 | 0.28 | 0.28 | 88 | 1016.8 |
| 20260901223157 | 65 | 181 | 1.0 | 1.0 | 0.00 | 0.36 | 0.36 | 90 | 1017.6 |
| 20260901222653 | 65 | 123 | 1.0 | 2.0 | 0.00 | 0.36 | 0.36 | 89 | 1017.6 |
| 20260901222336 | 66 | 158 | 0.0 | 1.0 | 0.00 | 0.28 | 0.28 | 88 | 1017.1 |
| 20260901222149 | 65 | 159 | 0.0 | 1.0 | 0.00 | 0.36 | 0.36 | 88 | 1017.5 |
| 20260901221645 | 65 | 121 | 0.0 | 4.0 | 0.00 | 0.36 | 0.36 | 88 | 1017.4 |
| 20260901221351 | 66 | 132 | 2.0 | 9.0 | 0.00 | 0.28 | 0.28 | 88 | 1016.9 |
| 20260901221141 | 66 | 126 | 1.0 | 2.0 | 0.00 | 0.36 | 0.36 | 87 | 1017.3 |
| 20260901220639 | 66 | 105 | 1.0 | 2.0 | 0.00 | 0.36 | 0.36 | 88 | 1017.4 |
| 20260901220322 | 67 | 111 | 0.0 | 5.0 | 0.00 | 0.28 | 0.28 | 88 | 1016.8 |
| 20260901220139 | 66 | 104 | 2.0 | 2.0 | 0.00 | 0.36 | 0.36 | 87 | 1017.3 |
| 20260901215637 | 66 | 148 | 0.0 | 1.0 | 0.00 | 0.36 | 0.36 | 88 | 1017.1 |
| 20260901215350 | 67 | 172 | 0.0 | 0.0 | 0.00 | 0.28 | 0.28 | 88 | 1016.8 |
| 20260901215132 | 66 | 118 | 0.0 | 4.0 | 0.00 | 0.36 | 0.36 | 87 | 1016.9 |
| 20260901214630 | 66 | 154 | 0.0 | 0.0 | 0.00 | 0.36 | 0.36 | 87 | 1016.9 |
| 20260901214334 | 67 | 155 | 0.0 | 0.0 | 0.00 | 0.28 | 0.28 | 88 | 1016.7 |
| 20260901214125 | 67 | 125 | 0.0 | 1.0 | 0.00 | 0.36 | 0.36 | 87 | 1017.1 |
| 20260901213624 | 66 | 136 | 0.0 | 1.0 | 0.00 | 0.36 | 0.36 | 87 | 1017.1 |
| 20260901213339 | 67 | 156 | 0.0 | 0.0 | 0.00 | 0.28 | 0.28 | 88 | 1016.6 |
| 20260901213119 | 67 | 143 | 1.0 | 1.0 | 0.00 | 0.36 | 0.36 | 88 | 1016.9 |
| 20260901212620 | 67 | 176 | 0.0 | 1.0 | 0.00 | 0.36 | 0.36 | 87 | 1016.9 |
| 20260901212350 | 67 | 167 | 0.0 | 0.0 | 0.00 | 0.28 | 0.28 | 88 | 1016.6 |
| 20260901212116 | 67 | 113 | 0.0 | 1.0 | 0.00 | 0.36 | 0.36 | 87 | 1016.9 |
| 20260901211616 | 67 | 126 | 0.0 | 0.0 | 0.00 | 0.36 | 0.36 | 87 | 1016.9 |
| 20260901211340 | 67 | 168 | 0.0 | 0.0 | 0.00 | 0.28 | 0.28 | 88 | 1016.6 |
| 20260901211112 | 67 | 107 | 0.0 | 0.0 | 0.00 | 0.36 | 0.36 | 87 | 1017.1 |
| 20260901210608 | 67 | 114 | 1.0 | 3.0 | 0.00 | 0.36 | 0.36 | 87 | 1016.9 |
| 20260901210203 | 67 | 155 | 0.0 | 0.0 | 0.00 | 0.28 | 0.28 | 88 | 1016.2 |
| 20260901210104 | 67 | 140 | 0.0 | 1.0 | 0.00 | 0.36 | 0.36 | 87 | 1016.6 |
| 20260901205703 | 67 | 166 | 0.0 | 0.0 | 0.00 | 0.28 | 0.28 | 88 | 1016.1 |
| 20260901205559 | 67 | 166 | 2.0 | 3.0 | 0.00 | 0.36 | 0.36 | 87 | 1016.6 |
| 20260901205203 | 67 | 178 | 0.0 | 0.0 | 0.00 | 0.28 | 0.28 | 89 | 1016.0 |
| 20260901205059 | 67 | 138 | 1.0 | 2.0 | 0.00 | 0.36 | 0.36 | 88 | 1016.7 |
| 20260901204703 | 67 | 160 | 0.0 | 0.0 | 0.00 | 0.28 | 0.28 | 89 | 1016.0 |
| 20260901204555 | 67 | 140 | 0.0 | 1.0 | 0.00 | 0.36 | 0.36 | 88 | 1016.7 |
| 20260901204203 | 67 | 157 | 0.0 | 0.0 | 0.00 | 0.28 | 0.28 | 88 | 1016.1 |
| 20260901204051 | 67 | 153 | 2.0 | 2.0 | 0.00 | 0.36 | 0.36 | 87 | 1016.9 |
| 20260901203704 | 67 | 97 | 0.0 | 0.0 | 0.00 | 0.28 | 0.28 | 89 | 1016.0 |
| 20260901203551 | 67 | 148 | 0.0 | 0.0 | 0.00 | 0.36 | 0.36 | 87 | 1016.7 |
| 20260901203203 | 67 | 96 | 0.0 | 0.0 | 0.00 | 0.28 | 0.28 | 89 | 1016.0 |
| 20260901203046 | 67 | 80 | 0.0 | 1.0 | 0.00 | 0.36 | 0.36 | 86 | 1016.6 |
| 20260901202545 | 68 | 123 | 0.0 | 1.0 | 0.00 | 0.36 | 0.36 | 87 | 1016.6 |
| 20260901202203 | 68 | 146 | 0.0 | 0.0 | 0.00 | 0.28 | 0.28 | 89 | 1015.9 |
| 20260901202042 | 68 | 186 | 0.0 | 1.0 | 0.00 | 0.36 | 0.36 | 87 | 1016.5 |
| 20260901201703 | 67 | 139 | 0.0 | 0.0 | 0.00 | 0.28 | 0.28 | 89 | 1015.8 |
| 20260901201537 | 68 | 137 | 1.0 | 1.0 | 0.00 | 0.36 | 0.36 | 87 | 1016.5 |
| 20260901201203 | 67 | 182 | 0.0 | 0.0 | 0.00 | 0.28 | 0.28 | 89 | 1015.8 |
| 20260901201036 | 68 | 119 | 0.0 | 4.0 | 0.00 | 0.36 | 0.36 | 86 | 1016.3 |
| 20260901200536 | 68 | 145 | 1.0 | 2.0 | 0.00 | 0.36 | 0.36 | 87 | 1016.4 |
| 20260901200203 | 67 | 95 | 0.0 | 0.0 | 0.00 | 0.28 | 0.28 | 90 | 1015.8 |
| 20260901200031 | 68 | 144 | 1.0 | 3.0 | 0.00 | 0.36 | 0.36 | 87 | 1016.5 |
| 20260901195703 | 67 | 136 | 0.0 | 0.0 | 0.00 | 0.28 | 0.28 | 90 | 1015.9 |
| 20260901195529 | 68 | 129 | 0.0 | 0.0 | 0.00 | 0.36 | 0.36 | 87 | 1016.7 |
| 20260901195203 | 67 | 123 | 0.0 | 0.0 | 0.00 | 0.28 | 0.28 | 90 | 1015.9 |
| 20260901195029 | 68 | 80 | 0.0 | 2.0 | 0.00 | 0.36 | 0.36 | 87 | 1016.6 |
| 20260901194702 | 67 | 135 | 0.0 | 0.0 | 0.00 | 0.28 | 0.28 | 90 | 1015.9 |
| 20260901194529 | 68 | 136 | 0.0 | 3.0 | 0.00 | 0.36 | 0.36 | 88 | 1016.6 |
| 20260901194203 | 67 | 171 | 0.0 | 0.0 | 0.00 | 0.28 | 0.28 | 90 | 1015.9 |
| 20260901194024 | 67 | 123 | 1.0 | 2.0 | 0.00 | 0.36 | 0.36 | 88 | 1016.6 |
| 20260901193524 | 68 | 134 | 1.0 | 2.0 | 0.00 | 0.36 | 0.36 | 89 | 1016.5 |
| 20260901193203 | 67 | 173 | 0.0 | 0.0 | 0.00 | 0.28 | 0.28 | 91 | 1015.9 |
| 20260901193019 | 67 | 118 | 0.0 | 2.0 | 0.00 | 0.36 | 0.36 | 89 | 1016.6 |
| 20260901192702 | 67 | 118 | 0.0 | 2.0 | 0.00 | 0.28 | 0.28 | 91 | 1015.9 |
| 20260901192514 | 67 | 153 | 1.0 | 2.0 | 0.00 | 0.36 | 0.36 | 89 | 1016.8 |
| 20260901192203 | 67 | 128 | 0.0 | 2.0 | 0.00 | 0.28 | 0.28 | 91 | 1016.0 |
| 20260901192010 | 67 | 141 | 1.0 | 2.0 | 0.00 | 0.36 | 0.36 | 89 | 1016.6 |
| 20260901191703 | 67 | 112 | 1.0 | 6.0 | 0.00 | 0.28 | 0.28 | 91 | 1016.0 |
| 20260901191506 | 67 | 119 | 0.0 | 3.0 | 0.00 | 0.36 | 0.36 | 89 | 1016.8 |
| 20260901191001 | 67 | 143 | 2.0 | 4.0 | 0.00 | 0.36 | 0.36 | 88 | 1016.7 |
| 20260901190703 | 67 | 108 | 0.0 | 1.0 | 0.00 | 0.28 | 0.28 | 91 | 1016.1 |
| 20260901190457 | 67 | 109 | 0.0 | 1.0 | 0.00 | 0.36 | 0.36 | 89 | 1016.8 |
| 20260901190203 | 67 | 133 | 0.0 | 1.0 | 0.00 | 0.28 | 0.28 | 91 | 1016.1 |
| 20260901185954 | 67 | 90 | 2.0 | 3.0 | 0.00 | 0.36 | 0.36 | 88 | 1016.7 |
| 20260901185449 | 67 | 132 | 1.0 | 2.0 | 0.00 | 0.36 | 0.36 | 89 | 1016.7 |
| 20260901185203 | 67 | 148 | 0.0 | 0.0 | 0.00 | 0.28 | 0.28 | 91 | 1016.0 |
| 20260901184948 | 67 | 142 | 1.0 | 3.0 | 0.00 | 0.36 | 0.36 | 89 | 1016.8 |
| 20260901184703 | 67 | 89 | 0.0 | 0.0 | 0.00 | 0.28 | 0.28 | 91 | 1016.0 |
| 20260901184444 | 67 | 123 | 0.0 | 2.0 | 0.00 | 0.36 | 0.36 | 89 | 1016.8 |
| 20260901184203 | 67 | 115 | 0.0 | 0.0 | 0.00 | 0.28 | 0.28 | 91 | 1016.0 |
| 20260901183939 | 67 | 136 | 2.0 | 2.0 | 0.00 | 0.36 | 0.36 | 88 | 1016.6 |
| 20260901183438 | 67 | 107 | 0.0 | 2.0 | 0.00 | 0.36 | 0.36 | 89 | 1016.7 |
| 20260901183203 | 66 | 79 | 0.0 | 0.0 | 0.00 | 0.28 | 0.28 | 91 | 1016.1 |
| 20260901182935 | 67 | 179 | 0.0 | 1.0 | 0.00 | 0.36 | 0.36 | 89 | 1016.8 |
| 20260901182703 | 66 | 109 | 0.0 | 0.0 | 0.00 | 0.28 | 0.28 | 91 | 1016.1 |
| 20260901182431 | 66 | 98 | 0.0 | 1.0 | 0.00 | 0.36 | 0.36 | 89 | 1016.6 |
| 20260901182203 | 66 | 113 | 0.0 | 0.0 | 0.00 | 0.28 | 0.28 | 91 | 1016.1 |
| 20260901181925 | 66 | 132 | 0.0 | 2.0 | 0.00 | 0.36 | 0.36 | 89 | 1016.7 |
| 20260901181703 | 66 | 146 | 0.0 | 0.0 | 0.00 | 0.28 | 0.28 | 91 | 1016.0 |
| 20260901181420 | 66 | 122 | 0.0 | 1.0 | 0.00 | 0.36 | 0.36 | 88 | 1016.9 |
| 20260901181203 | 66 | 134 | 0.0 | 0.0 | 0.00 | 0.28 | 0.28 | 91 | 1016.1 |
| 20260901180918 | 66 | 126 | 1.0 | 2.0 | 0.00 | 0.36 | 0.36 | 88 | 1016.7 |
| 20260901180413 | 66 | 114 | 0.0 | 0.0 | 0.00 | 0.36 | 0.36 | 89 | 1016.8 |
| 20260901180203 | 65 | 126 | 0.0 | 0.0 | 0.00 | 0.28 | 0.28 | 91 | 1016.0 |
| 20260901175911 | 66 | 139 | 0.0 | 1.0 | 0.00 | 0.36 | 0.36 | 89 | 1016.6 |
| 20260901175703 | 65 | 126 | 0.0 | 0.0 | 0.00 | 0.28 | 0.28 | 91 | 1016.0 |
| 20260901175406 | 66 | 145 | 0.0 | 1.0 | 0.00 | 0.36 | 0.36 | 88 | 1016.7 |
| 20260901175203 | 65 | 128 | 0.0 | 0.0 | 0.00 | 0.28 | 0.28 | 91 | 1016.0 |
| 20260901174901 | 66 | 93 | 0.0 | 1.0 | 0.00 | 0.36 | 0.36 | 89 | 1016.6 |
| 20260901174357 | 65 | 128 | 2.0 | 3.0 | 0.00 | 0.36 | 0.36 | 89 | 1016.5 |
| 20260901173852 | 65 | 122 | 1.0 | 2.0 | 0.00 | 0.36 | 0.36 | 89 | 1016.5 |
| 20260901173347 | 65 | 49 | 0.0 | 0.0 | 0.00 | 0.36 | 0.36 | 89 | 1016.4 |
| 20260901173204 | 65 | 171 | 0.0 | 0.0 | 0.00 | 0.28 | 0.28 | 91 | 1015.7 |
| 20260901172844 | 66 | 120 | 1.0 | 4.0 | 0.00 | 0.36 | 0.36 | 88 | 1016.2 |
| 20260901172703 | 65 | 159 | 0.0 | 3.0 | 0.00 | 0.28 | 0.28 | 92 | 1015.4 |
| 20260901172343 | 66 | 102 | 1.0 | 2.0 | 0.00 | 0.36 | 0.36 | 88 | 1016.1 |
| 20260901172203 | 64 | 80 | 0.0 | 0.0 | 0.00 | 0.28 | 0.28 | 92 | 1015.4 |
| 20260901171841 | 65 | 139 | 0.0 | 1.0 | 0.00 | 0.36 | 0.36 | 89 | 1016.1 |
| 20260901171340 | 64 | 114 | 0.0 | 1.0 | 0.00 | 0.36 | 0.36 | 89 | 1016.1 |
| 20260901171203 | 64 | 76 | 0.0 | 0.0 | 0.00 | 0.28 | 0.28 | 92 | 1015.6 |
| 20260901170839 | 64 | 83 | 0.0 | 2.0 | 0.00 | 0.36 | 0.36 | 88 | 1016.1 |
| 20260901170703 | 64 | 113 | 0.0 | 0.0 | 0.00 | 0.28 | 0.28 | 92 | 1015.6 |
| 20260901170334 | 64 | 133 | 1.0 | 2.0 | 0.00 | 0.36 | 0.36 | 89 | 1016.3 |
| 20260901170203 | 64 | 123 | 0.0 | 0.0 | 0.00 | 0.28 | 0.28 | 92 | 1015.6 |
| 20260901165833 | 64 | 128 | 0.0 | 1.0 | 0.00 | 0.36 | 0.36 | 90 | 1016.3 |
| 20260901165703 | 64 | 101 | 0.0 | 0.0 | 0.00 | 0.28 | 0.28 | 92 | 1015.7 |
| 20260901165327 | 64 | 122 | 1.0 | 2.0 | 0.00 | 0.36 | 0.36 | 90 | 1016.7 |
| 20260901165203 | 64 | 92 | 0.0 | 0.0 | 0.00 | 0.28 | 0.28 | 92 | 1015.9 |
| 20260901164824 | 64 | 127 | 0.0 | 0.0 | 0.00 | 0.36 | 0.36 | 91 | 1016.5 |
| 20260901164703 | 63 | 57 | 0.0 | 0.0 | 0.00 | 0.28 | 0.28 | 92 | 1015.9 |
| 20260901164319 | 64 | 137 | 0.0 | 1.0 | 0.00 | 0.36 | 0.36 | 91 | 1016.6 |
| 20260901163814 | 63 | 117 | 0.0 | 2.0 | 0.00 | 0.36 | 0.36 | 91 | 1016.9 |
| 20260901163314 | 63 | 133 | 0.0 | 0.0 | 0.00 | 0.36 | 0.36 | 90 | 1016.7 |
| 20260901163203 | 63 | 11 | 0.0 | 0.0 | 0.00 | 0.28 | 0.28 | 92 | 1016.1 |
| 20260901162809 | 63 | 88 | 0.0 | 0.0 | 0.00 | 0.36 | 0.36 | 91 | 1016.8 |
| 20260901162703 | 63 | 108 | 0.0 | 0.0 | 0.00 | 0.28 | 0.28 | 92 | 1016.1 |
| 20260901162308 | 63 | 108 | 0.0 | 0.0 | 0.00 | 0.36 | 0.36 | 90 | 1016.9 |
| 20260901162204 | 63 | 96 | 0.0 | 0.0 | 0.00 | 0.28 | 0.28 | 92 | 1016.1 |
| 20260901161808 | 63 | 84 | 0.0 | 0.0 | 0.00 | 0.36 | 0.36 | 90 | 1016.9 |
| 20260901161703 | 63 | 96 | 0.0 | 0.0 | 0.00 | 0.28 | 0.28 | 92 | 1016.2 |
| 20260901161302 | 63 | 32 | 0.0 | 0.0 | 0.00 | 0.36 | 0.36 | 89 | 1017.2 |
| 20260901161203 | 63 | 96 | 0.0 | 0.0 | 0.00 | 0.28 | 0.28 | 92 | 1016.2 |
| 20260901160758 | 63 | 295 | 0.0 | 0.0 | 0.00 | 0.36 | 0.36 | 90 | 1017.1 |
| 20260901160703 | 63 | 345 | 0.0 | 0.0 | 0.00 | 0.28 | 0.28 | 92 | 1016.2 |
| 20260901160254 | 63 | 75 | 0.0 | 1.0 | 0.00 | 0.36 | 0.36 | 89 | 1017.1 |
| 20260901160203 | 63 | 345 | 0.0 | 0.0 | 0.00 | 0.28 | 0.28 | 92 | 1016.3 |
| 20260901155752 | 63 | 123 | 0.0 | 2.0 | 0.00 | 0.36 | 0.36 | 89 | 1017.1 |
| 20260901155703 | 63 | 322 | 0.0 | 0.0 | 0.00 | 0.28 | 0.28 | 92 | 1016.3 |
| 20260901155248 | 63 | 132 | 0.0 | 1.0 | 0.00 | 0.36 | 0.36 | 89 | 1016.9 |
| 20260901155203 | 63 | 36 | 0.0 | 0.0 | 0.00 | 0.28 | 0.28 | 92 | 1016.2 |
| 20260901154738 | 63 | 167 | 0.0 | 1.0 | 0.00 | 0.36 | 0.36 | 89 | 1016.9 |
| 20260901154703 | 63 | 36 | 0.0 | 0.0 | 0.00 | 0.28 | 0.28 | 92 | 1016.2 |
| 20260901154238 | 63 | 136 | 0.0 | 0.0 | 0.00 | 0.36 | 0.36 | 89 | 1016.7 |
| 20260901154203 | 62 | 36 | 0.0 | 0.0 | 0.00 | 0.28 | 0.28 | 92 | 1016.1 |
| 20260901153733 | 63 | 91 | 0.0 | 1.0 | 0.00 | 0.36 | 0.36 | 89 | 1016.8 |
| 20260901153703 | 62 | 36 | 0.0 | 0.0 | 0.00 | 0.28 | 0.28 | 92 | 1016.0 |
| 20260901153232 | 63 | 160 | 1.0 | 1.0 | 0.00 | 0.36 | 0.36 | 90 | 1016.7 |
| 20260901152732 | 63 | 153 | 1.0 | 1.0 | 0.00 | 0.36 | 0.36 | 90 | 1016.5 |
| 20260901152703 | 62 | 36 | 0.0 | 0.0 | 0.00 | 0.28 | 0.28 | 92 | 1015.8 |
| 20260901152231 | 62 | 137 | 0.0 | 0.0 | 0.00 | 0.36 | 0.36 | 90 | 1016.6 |
| 20260901152203 | 62 | 36 | 0.0 | 0.0 | 0.00 | 0.28 | 0.28 | 92 | 1015.8 |
| 20260901151727 | 62 | 29 | 0.0 | 0.0 | 0.00 | 0.36 | 0.36 | 91 | 1016.6 |
| 20260901151703 | 62 | 36 | 0.0 | 0.0 | 0.00 | 0.28 | 0.28 | 92 | 1015.9 |
| 20260901151226 | 62 | 29 | 0.0 | 1.0 | 0.00 | 0.36 | 0.36 | 90 | 1016.7 |
| 20260901151203 | 62 | 36 | 0.0 | 0.0 | 0.00 | 0.28 | 0.28 | 92 | 1015.9 |
| 20260901150721 | 62 | 111 | 0.0 | 0.0 | 0.00 | 0.36 | 0.36 | 90 | 1016.7 |
| 20260901150703 | 62 | 66 | 0.0 | 0.0 | 0.01 | 0.28 | 0.28 | 92 | 1016.0 |
| 20260901150219 | 62 | 119 | 0.0 | 0.0 | 0.00 | 0.36 | 0.36 | 91 | 1016.7 |
| 20260901150202 | 62 | 24 | 0.0 | 0.0 | 0.01 | 0.28 | 0.28 | 92 | 1016.0 |
| 20260901145717 | 62 | 137 | 1.0 | 1.0 | 0.00 | 0.36 | 0.36 | 91 | 1016.8 |
| 20260901145217 | 62 | 106 | 0.0 | 1.0 | 0.00 | 0.36 | 0.36 | 92 | 1016.8 |
| 20260901145203 | 62 | 43 | 0.0 | 0.0 | 0.02 | 0.28 | 0.28 | 92 | 1016.1 |
| 20260901144712 | 62 | 46 | 2.0 | 2.0 | 0.00 | 0.36 | 0.36 | 92 | 1016.8 |
| 20260901144704 | 62 | 24 | 0.0 | 0.0 | 0.03 | 0.28 | 0.28 | 92 | 1016.0 |
| 20260901144213 | 62 | 76 | 1.0 | 2.0 | 0.00 | 0.36 | 0.36 | 92 | 1016.7 |
| 20260901144204 | 62 | 355 | 0.0 | 0.0 | 0.04 | 0.28 | 0.28 | 93 | 1016.0 |
| 20260901143708 | 62 | 109 | 1.0 | 2.0 | 0.00 | 0.36 | 0.36 | 93 | 1016.7 |
| 20260901143204 | 62 | 151 | 0.0 | 1.0 | 0.00 | 0.36 | 0.36 | 94 | 1016.4 |
| 20260901142700 | 61 | 160 | 0.0 | 1.0 | 0.00 | 0.36 | 0.36 | 94 | 1016.5 |
| 20260901142204 | 61 | 5 | 0.0 | 0.0 | 0.07 | 0.28 | 0.28 | 92 | 1016.0 |
| 20260901142159 | 61 | 110 | 0.0 | 2.0 | 0.00 | 0.36 | 0.36 | 94 | 1016.6 |
| 20260901141703 | 61 | 5 | 0.0 | 0.0 | 0.08 | 0.28 | 0.28 | 92 | 1016.0 |
| 20260901141655 | 61 | 345 | 1.0 | 2.0 | 0.00 | 0.36 | 0.36 | 94 | 1016.7 |
| 20260901141203 | 61 | 329 | 0.0 | 0.0 | 0.09 | 0.28 | 0.28 | 92 | 1016.1 |
| 20260901141154 | 61 | 144 | 0.0 | 2.0 | 0.00 | 0.36 | 0.36 | 94 | 1016.8 |